Zurück zum Katalog

STARLINK-33750

AktivKommunikationVLEO
NORAD 63513·PAYLOAD·🇺🇸 United States

Gestartet Apr 7, 2025 von Vandenberg Space Force Base

Loading…

Nächste Überflüge (nächste 24 Stunden)

TLE

AktuellSource: CelesTrak SupGP

Epoche: Sep 15, 2026, 02:52 UTC

1 63513C 25071W   26258.11993056  .00067300  00000+0  21640-2 0  2588
2 63513  53.1593 338.6749 0001211  93.2211 179.0091 15.31670737    17

Verfolge STARLINK-33750 in Echtzeit mit AllMySat

Download on the App Store